owner,sensor,date,latitude,longitude,vertical_datum,mass_concentration_of_oxygen_in_sea_water,qcFlag 
SCCF RECON,ioos:station:SCCF:53:1,2012-02-01T00:00:00Z,26.6493,-81.8810,2.26,7.55,1111122 
SCCF RECON,ioos:station:SCCF:53:1,2012-02-01T01:00:00Z,26.6493,-81.8810,2.31,7.56,1111122 
SCCF RECON,ioos:station:SCCF:53:1,2012-02-01T02:00:00Z,26.6493,-81.8810,2.34,7.26,1111122 
SCCF RECON,ioos:station:SCCF:53:1,2012-02-01T03:00:00Z,26.6493,-81.8810,2.346,7.16,1111122 
SCCF RECON,ioos:station:SCCF:53:1,2012-02-01T04:00:00Z,26.6493,-81.8810,2.32,7.22,1111122 
SCCF RECON,ioos:station:SCCF:53:1,2012-02-01T05:00:00Z,26.6493,-81.8810,2.279,7.22,1111122 
SCCF RECON,ioos:station:SCCF:53:1,2012-02-01T06:00:00Z,26.6493,-81.8810,2.23,7.19,1111122 
SCCF RECON,ioos:station:SCCF:53:1,2012-02-01T07:00:00Z,26.6493,-81.8810,2.184,7.11,1111122 
SCCF RECON,ioos:station:SCCF:53:1,2012-02-01T08:00:00Z,26.6493,-81.8810,2.14,7.17,1111122 
SCCF RECON,ioos:station:SCCF:53:1,2012-02-01T09:00:00Z,26.6493,-81.8810,2.098,7.17,1111122 
SCCF RECON,ioos:station:SCCF:53:1,2012-02-01T10:00:00Z,26.6493,-81.8810,2.06,7.07,1111122 
SCCF RECON,ioos:station:SCCF:53:1,2012-02-01T11:00:00Z,26.6493,-81.8810,2.04,7.09,1111122 
SCCF RECON,ioos:station:SCCF:53:1,2012-02-01T12:00:00Z,26.6493,-81.8810,2.06,7.01,1111122 
SCCF RECON,ioos:station:SCCF:53:1,2012-02-01T13:00:00Z,26.6493,-81.8810,2.1,6.86,1111122 
SCCF RECON,ioos:station:SCCF:53:1,2012-02-01T14:00:00Z,26.6493,-81.8810,2.13,6.83,1111122 
SCCF RECON,ioos:station:SCCF:53:1,2012-02-01T15:00:00Z,26.6493,-81.8810,2.16,7.01,1111122 
SCCF RECON,ioos:station:SCCF:53:1,2012-02-01T16:00:00Z,26.6493,-81.8810,2.199,7.15,1111122 
SCCF RECON,ioos:station:SCCF:53:1,2012-02-01T17:00:00Z,26.6493,-81.8810,2.215,7.12,1111122 
SCCF RECON,ioos:station:SCCF:53:1,2012-02-01T18:00:00Z,26.6493,-81.8810,2.229,7.12,1111122 
SCCF RECON,ioos:station:SCCF:53:1,2012-02-01T19:00:00Z,26.6493,-81.8810,2.248,7.09,1111122 
SCCF RECON,ioos:station:SCCF:53:1,2012-02-01T20:00:00Z,26.6493,-81.8810,2.267,7.28,1111122 
SCCF RECON,ioos:station:SCCF:53:1,2012-02-01T21:00:00Z,26.6493,-81.8810,2.288,7.19,1111122 
SCCF RECON,ioos:station:SCCF:53:1,2012-02-01T22:00:00Z,26.6493,-81.8810,2.31,7.17,1111122 
SCCF RECON,ioos:station:SCCF:53:1,2012-02-01T23:00:00Z,26.6493,-81.8810,2.36,7.28,1111122 
SCCF RECON,ioos:station:SCCF:53:1,2012-02-02T00:00:00Z,26.6493,-81.8810,2.41,7.3,1111122 
SCCF RECON,ioos:station:SCCF:53:1,2012-02-02T01:00:00Z,26.6493,-81.8810,2.44,7.21,1111122 
SCCF RECON,ioos:station:SCCF:53:1,2012-02-02T02:00:00Z,26.6493,-81.8810,2.46,6.88,1111122 
SCCF RECON,ioos:station:SCCF:53:1,2012-02-02T03:00:00Z,26.6493,-81.8810,2.46,6.67,1111122 
SCCF RECON,ioos:station:SCCF:53:1,2012-02-02T04:00:00Z,26.6493,-81.8810,2.43,7.02,1111122 
SCCF RECON,ioos:station:SCCF:53:1,2012-02-02T05:00:00Z,26.6493,-81.8810,2.39,7.18,1111122 
SCCF RECON,ioos:station:SCCF:53:1,2012-02-02T06:00:00Z,26.6493,-81.8810,2.34,6.88,1111122 
SCCF RECON,ioos:station:SCCF:53:1,2012-02-02T07:00:00Z,26.6493,-81.8810,2.29,6.83,1111122 
SCCF RECON,ioos:station:SCCF:53:1,2012-02-02T08:00:00Z,26.6493,-81.8810,2.24,6.81,1111122 
SCCF RECON,ioos:station:SCCF:53:1,2012-02-02T09:00:00Z,26.6493,-81.8810,2.19,6.56,1111122 
SCCF RECON,ioos:station:SCCF:53:1,2012-02-02T10:00:00Z,26.6493,-81.8810,2.14,6.63,1111122 
SCCF RECON,ioos:station:SCCF:53:1,2012-02-02T11:00:00Z,26.6493,-81.8810,2.1,6.36,1111122 
SCCF RECON,ioos:station:SCCF:53:1,2012-02-02T12:00:00Z,26.6493,-81.8810,2.07,6.5,1111122 
SCCF RECON,ioos:station:SCCF:53:1,2012-02-02T13:00:00Z,26.6493,-81.8810,2.06,6.63,1111122 
SCCF RECON,ioos:station:SCCF:53:1,2012-02-02T14:00:00Z,26.6493,-81.8810,2.084,6.55,1111122 
SCCF RECON,ioos:station:SCCF:53:1,2012-02-02T15:00:00Z,26.6493,-81.8810,2.119,6.28,1111122 
SCCF RECON,ioos:station:SCCF:53:1,2012-02-02T16:00:00Z,26.6493,-81.8810,2.152,6.41,1111122 
SCCF RECON,ioos:station:SCCF:53:1,2012-02-02T17:00:00Z,26.6493,-81.8810,2.19,6.61,1111122 
SCCF RECON,ioos:station:SCCF:53:1,2012-02-02T18:00:00Z,26.6493,-81.8810,2.213,6.33,1111122 
SCCF RECON,ioos:station:SCCF:53:1,2012-02-02T19:00:00Z,26.6493,-81.8810,2.231,6.2,1111122 
SCCF RECON,ioos:station:SCCF:53:1,2012-02-02T20:00:00Z,26.6493,-81.8810,2.246,6.08,1111122 
SCCF RECON,ioos:station:SCCF:53:1,2012-02-02T21:00:00Z,26.6493,-81.8810,2.249,6.31,1111122 
SCCF RECON,ioos:station:SCCF:53:1,2012-02-02T22:00:00Z,26.6493,-81.8810,2.26,6.02,1111122 
SCCF RECON,ioos:station:SCCF:53:1,2012-02-02T23:00:00Z,26.6493,-81.8810,2.28,6.26,1111122 
SCCF RECON,ioos:station:SCCF:53:1,2012-02-03T00:00:00Z,26.6493,-81.8810,2.32,6.5,1111122 
SCCF RECON,ioos:station:SCCF:53:1,2012-02-03T01:00:00Z,26.6493,-81.8810,2.37,6.38,1111122 
SCCF RECON,ioos:station:SCCF:53:1,2012-02-03T02:00:00Z,26.6493,-81.8810,2.41,6.56,1111122 
SCCF RECON,ioos:station:SCCF:53:1,2012-02-03T03:00:00Z,26.6493,-81.8810,2.45,6.5,1111122 
SCCF RECON,ioos:station:SCCF:53:1,2012-02-03T04:00:00Z,26.6493,-81.8810,2.46,6.52,1111122 
SCCF RECON,ioos:station:SCCF:53:1,2012-02-03T05:00:00Z,26.6493,-81.8810,2.43,6.38,1111122 
SCCF RECON,ioos:station:SCCF:53:1,2012-02-03T06:00:00Z,26.6493,-81.8810,2.38,6.41,1111122 
SCCF RECON,ioos:station:SCCF:53:1,2012-02-03T07:00:00Z,26.6493,-81.8810,2.32,6.33,1111122 
SCCF RECON,ioos:station:SCCF:53:1,2012-02-03T08:00:00Z,26.6493,-81.8810,2.27,6.45,1111122 
SCCF RECON,ioos:station:SCCF:53:1,2012-02-03T09:00:00Z,26.6493,-81.8810,2.22,6.23,1111122 
SCCF RECON,ioos:station:SCCF:53:1,2012-02-03T10:00:00Z,26.6493,-81.8810,2.168,6.2,1111122 
SCCF RECON,ioos:station:SCCF:53:1,2012-02-03T11:00:00Z,26.6493,-81.8810,2.12,6.16,1111122 
SCCF RECON,ioos:station:SCCF:53:1,2012-02-03T12:00:00Z,26.6493,-81.8810,2.09,6.11,1111122 
SCCF RECON,ioos:station:SCCF:53:1,2012-02-03T13:00:00Z,26.6493,-81.8810,2.06,6.17,1111122 
SCCF RECON,ioos:station:SCCF:53:1,2012-02-03T14:00:00Z,26.6493,-81.8810,2.054,5.86,1111122 
SCCF RECON,ioos:station:SCCF:53:1,2012-02-03T15:00:00Z,26.6493,-81.8810,2.079,5.87,1111122 
SCCF RECON,ioos:station:SCCF:53:1,2012-02-03T16:00:00Z,26.6493,-81.8810,2.113,6.06,1111122 
SCCF RECON,ioos:station:SCCF:53:1,2012-02-03T17:00:00Z,26.6493,-81.8810,2.15,6.18,1111122 
SCCF RECON,ioos:station:SCCF:53:1,2012-02-03T18:00:00Z,26.6493,-81.8810,2.172,6.21,1111122 
SCCF RECON,ioos:station:SCCF:53:1,2012-02-03T19:00:00Z,26.6493,-81.8810,2.199,6.18,1111122 
SCCF RECON,ioos:station:SCCF:53:1,2012-02-03T20:00:00Z,26.6493,-81.8810,2.21,6.09,1111122 
SCCF RECON,ioos:station:SCCF:53:1,2012-02-03T21:00:00Z,26.6493,-81.8810,2.221,6.1,1111122 
SCCF RECON,ioos:station:SCCF:53:1,2012-02-03T22:00:00Z,26.6493,-81.8810,2.24,6.21,1111122 
SCCF RECON,ioos:station:SCCF:53:1,2012-02-03T23:00:00Z,26.6493,-81.8810,2.26,6.06,1111122 
SCCF RECON,ioos:station:SCCF:53:1,2012-02-04T00:00:00Z,26.6493,-81.8810,2.29,6.13,1111122 
SCCF RECON,ioos:station:SCCF:53:1,2012-02-04T01:00:00Z,26.6493,-81.8810,2.34,6.09,1111122 
SCCF RECON,ioos:station:SCCF:53:1,2012-02-04T02:00:00Z,26.6493,-81.8810,2.38,6.03,1111122 
SCCF RECON,ioos:station:SCCF:53:1,2012-02-04T03:00:00Z,26.6493,-81.8810,2.41,6.15,1111122 
SCCF RECON,ioos:station:SCCF:53:1,2012-02-04T04:00:00Z,26.6493,-81.8810,2.44,6.09,1111122 
SCCF RECON,ioos:station:SCCF:53:1,2012-02-04T05:00:00Z,26.6493,-81.8810,2.45,6.0,1111122 
SCCF RECON,ioos:station:SCCF:53:1,2012-02-04T06:00:00Z,26.6493,-81.8810,2.43,5.68,1111122 
SCCF RECON,ioos:station:SCCF:53:1,2012-02-04T07:00:00Z,26.6493,-81.8810,2.37,5.62,1111122 
SCCF RECON,ioos:station:SCCF:53:1,2012-02-04T08:00:00Z,26.6493,-81.8810,2.312,5.72,1111122 
SCCF RECON,ioos:station:SCCF:53:1,2012-02-04T09:00:00Z,26.6493,-81.8810,2.256,5.66,1111122 
SCCF RECON,ioos:station:SCCF:53:1,2012-02-04T10:00:00Z,26.6493,-81.8810,2.2,5.73,1111122 
SCCF RECON,ioos:station:SCCF:53:1,2012-02-04T11:00:00Z,26.6493,-81.8810,2.15,5.45,1111122 
SCCF RECON,ioos:station:SCCF:53:1,2012-02-04T12:00:00Z,26.6493,-81.8810,2.107,5.53,1111122 
SCCF RECON,ioos:station:SCCF:53:1,2012-02-04T13:00:00Z,26.6493,-81.8810,2.067,5.53,1111122 
SCCF RECON,ioos:station:SCCF:53:1,2012-02-04T14:00:00Z,26.6493,-81.8810,2.04,5.7,1111122 
SCCF RECON,ioos:station:SCCF:53:1,2012-02-04T15:00:00Z,26.6493,-81.8810,2.049,5.69,1111122 
SCCF RECON,ioos:station:SCCF:53:1,2012-02-04T16:00:00Z,26.6493,-81.8810,2.07,5.69,1111122 
SCCF RECON,ioos:station:SCCF:53:1,2012-02-04T17:00:00Z,26.6493,-81.8810,2.095,6.77,1111122 
SCCF RECON,ioos:station:SCCF:53:1,2012-02-04T18:00:00Z,26.6493,-81.8810,2.122,6.76,1111122 
SCCF RECON,ioos:station:SCCF:53:1,2012-02-04T19:00:00Z,26.6493,-81.8810,2.157,6.1,1111122 
SCCF RECON,ioos:station:SCCF:53:1,2012-02-04T20:00:00Z,26.6493,-81.8810,2.18,6.25,1111122 
SCCF RECON,ioos:station:SCCF:53:1,2012-02-04T21:00:00Z,26.6493,-81.8810,2.201,6.33,1111122 
SCCF RECON,ioos:station:SCCF:53:1,2012-02-04T22:00:00Z,26.6493,-81.8810,2.211,6.48,1111122 
SCCF RECON,ioos:station:SCCF:53:1,2012-02-04T23:00:00Z,26.6493,-81.8810,2.226,6.36,1111122 
SCCF RECON,ioos:station:SCCF:53:1,2012-02-05T00:00:00Z,26.6493,-81.8810,2.241,6.4,1111122 
SCCF RECON,ioos:station:SCCF:53:1,2012-02-05T01:00:00Z,26.6493,-81.8810,2.279,6.26,1111122 
SCCF RECON,ioos:station:SCCF:53:1,2012-02-05T02:00:00Z,26.6493,-81.8810,2.322,6.05,1111122 
SCCF RECON,ioos:station:SCCF:53:1,2012-02-05T03:00:00Z,26.6493,-81.8810,2.38,6.38,1111122 
SCCF RECON,ioos:station:SCCF:53:1,2012-02-05T04:00:00Z,26.6493,-81.8810,2.43,6.8,1111122 
SCCF RECON,ioos:station:SCCF:53:1,2012-02-05T05:00:00Z,26.6493,-81.8810,2.47,6.95,1111122 
SCCF RECON,ioos:station:SCCF:53:1,2012-02-05T06:00:00Z,26.6493,-81.8810,2.494,6.69,1111122 
SCCF RECON,ioos:station:SCCF:53:1,2012-02-05T07:00:00Z,26.6493,-81.8810,2.47,5.81,1111122 
SCCF RECON,ioos:station:SCCF:53:1,2012-02-05T08:00:00Z,26.6493,-81.8810,2.41,6.28,1111122 
SCCF RECON,ioos:station:SCCF:53:1,2012-02-05T09:00:00Z,26.6493,-81.8810,2.34,5.64,1111122 
SCCF RECON,ioos:station:SCCF:53:1,2012-02-05T10:00:00Z,26.6493,-81.8810,2.29,6.08,1111122 
SCCF RECON,ioos:station:SCCF:53:1,2012-02-05T11:00:00Z,26.6493,-81.8810,2.23,6.09,1111122 
SCCF RECON,ioos:station:SCCF:53:1,2012-02-05T12:00:00Z,26.6493,-81.8810,2.175,6.02,1111122 
SCCF RECON,ioos:station:SCCF:53:1,2012-02-05T13:00:00Z,26.6493,-81.8810,2.131,5.88,1111122 
SCCF RECON,ioos:station:SCCF:53:1,2012-02-05T14:00:00Z,26.6493,-81.8810,2.092,5.96,1111122 
SCCF RECON,ioos:station:SCCF:53:1,2012-02-05T15:00:00Z,26.6493,-81.8810,2.079,6.27,1111122 
SCCF RECON,ioos:station:SCCF:53:1,2012-02-05T16:00:00Z,26.6493,-81.8810,2.11,6.11,1111122 
SCCF RECON,ioos:station:SCCF:53:1,2012-02-05T17:00:00Z,26.6493,-81.8810,2.151,6.4,1111122 
SCCF RECON,ioos:station:SCCF:53:1,2012-02-05T18:00:00Z,26.6493,-81.8810,2.192,6.43,1111122 
SCCF RECON,ioos:station:SCCF:53:1,2012-02-05T19:00:00Z,26.6493,-81.8810,2.233,5.83,1111122 
SCCF RECON,ioos:station:SCCF:53:1,2012-02-05T20:00:00Z,26.6493,-81.8810,2.27,5.94,1111122 
SCCF RECON,ioos:station:SCCF:53:1,2012-02-05T21:00:00Z,26.6493,-81.8810,2.292,6.13,1111122 
SCCF RECON,ioos:station:SCCF:53:1,2012-02-05T22:00:00Z,26.6493,-81.8810,2.29,5.75,1111122 
SCCF RECON,ioos:station:SCCF:53:1,2012-02-05T23:00:00Z,26.6493,-81.8810,2.28,5.76,1111122 
SCCF RECON,ioos:station:SCCF:53:1,2012-02-06T00:00:00Z,26.6493,-81.8810,2.261,5.41,1111122 
SCCF RECON,ioos:station:SCCF:53:1,2012-02-06T01:00:00Z,26.6493,-81.8810,2.28,5.65,1111122 
SCCF RECON,ioos:station:SCCF:53:1,2012-02-06T02:00:00Z,26.6493,-81.8810,2.33,6.05,1111122 
SCCF RECON,ioos:station:SCCF:53:1,2012-02-06T03:00:00Z,26.6493,-81.8810,2.39,5.87,1111122 
SCCF RECON,ioos:station:SCCF:53:1,2012-02-06T04:00:00Z,26.6493,-81.8810,2.45,5.41,1111122 
SCCF RECON,ioos:station:SCCF:53:1,2012-02-06T05:00:00Z,26.6493,-81.8810,2.5,5.98,1111122 
SCCF RECON,ioos:station:SCCF:53:1,2012-02-06T06:00:00Z,26.6493,-81.8810,2.55,6.23,1111122 
SCCF RECON,ioos:station:SCCF:53:1,2012-02-06T07:00:00Z,26.6493,-81.8810,2.562,6.18,1111122 
SCCF RECON,ioos:station:SCCF:53:1,2012-02-06T08:00:00Z,26.6493,-81.8810,2.51,5.79,1111122 
SCCF RECON,ioos:station:SCCF:53:1,2012-02-06T09:00:00Z,26.6493,-81.8810,2.44,5.98,1111122 
SCCF RECON,ioos:station:SCCF:53:1,2012-02-06T10:00:00Z,26.6493,-81.8810,2.39,5.73,1111122 
SCCF RECON,ioos:station:SCCF:53:1,2012-02-06T11:00:00Z,26.6493,-81.8810,2.32,5.92,1111122 
SCCF RECON,ioos:station:SCCF:53:1,2012-02-06T12:00:00Z,26.6493,-81.8810,2.27,5.66,1111122 
SCCF RECON,ioos:station:SCCF:53:1,2012-02-06T13:00:00Z,26.6493,-81.8810,2.22,5.5,1111122 
SCCF RECON,ioos:station:SCCF:53:1,2012-02-06T14:00:00Z,26.6493,-81.8810,2.17,5.54,1111122 
SCCF RECON,ioos:station:SCCF:53:1,2012-02-06T15:00:00Z,26.6493,-81.8810,2.14,5.59,1111122 
SCCF RECON,ioos:station:SCCF:53:1,2012-02-06T16:00:00Z,26.6493,-81.8810,2.143,5.79,1111122 
SCCF RECON,ioos:station:SCCF:53:1,2012-02-06T17:00:00Z,26.6493,-81.8810,2.199,5.99,1111122 
SCCF RECON,ioos:station:SCCF:53:1,2012-02-06T18:00:00Z,26.6493,-81.8810,2.248,6.06,1111122 
SCCF RECON,ioos:station:SCCF:53:1,2012-02-06T19:00:00Z,26.6493,-81.8810,2.274,7.04,1111122 
SCCF RECON,ioos:station:SCCF:53:1,2012-02-06T20:00:00Z,26.6493,-81.8810,2.31,5.82,1111122 
SCCF RECON,ioos:station:SCCF:53:1,2012-02-06T21:00:00Z,26.6493,-81.8810,2.32,5.94,1111122 
SCCF RECON,ioos:station:SCCF:53:1,2012-02-06T22:00:00Z,26.6493,-81.8810,2.28,5.98,1111122 
SCCF RECON,ioos:station:SCCF:53:1,2012-02-06T23:00:00Z,26.6493,-81.8810,2.24,5.6,1111122 
SCCF RECON,ioos:station:SCCF:53:1,2012-02-07T00:00:00Z,26.6493,-81.8810,2.22,5.45,1111122 
SCCF RECON,ioos:station:SCCF:53:1,2012-02-07T01:00:00Z,26.6493,-81.8810,2.19,4.59,1111122 
SCCF RECON,ioos:station:SCCF:53:1,2012-02-07T02:00:00Z,26.6493,-81.8810,2.194,5.02,1111122 
SCCF RECON,ioos:station:SCCF:53:1,2012-02-07T03:00:00Z,26.6493,-81.8810,2.24,5.25,1111122 
SCCF RECON,ioos:station:SCCF:53:1,2012-02-07T04:00:00Z,26.6493,-81.8810,2.309,5.4,1111122 
SCCF RECON,ioos:station:SCCF:53:1,2012-02-07T05:00:00Z,26.6493,-81.8810,2.36,5.58,1111122 
SCCF RECON,ioos:station:SCCF:53:1,2012-02-07T06:00:00Z,26.6493,-81.8810,2.429,5.52,1111122 
SCCF RECON,ioos:station:SCCF:53:1,2012-02-07T07:00:00Z,26.6493,-81.8810,2.48,5.43,1111122 
SCCF RECON,ioos:station:SCCF:53:1,2012-02-07T08:00:00Z,26.6493,-81.8810,2.494,5.39,1111122 
SCCF RECON,ioos:station:SCCF:53:1,2012-02-07T09:00:00Z,26.6493,-81.8810,2.45,5.2,1111122 
SCCF RECON,ioos:station:SCCF:53:1,2012-02-07T10:00:00Z,26.6493,-81.8810,2.39,5.33,1111122 
SCCF RECON,ioos:station:SCCF:53:1,2012-02-07T11:00:00Z,26.6493,-81.8810,2.33,5.13,1111122 
SCCF RECON,ioos:station:SCCF:53:1,2012-02-07T12:00:00Z,26.6493,-81.8810,2.27,5.07,1111122 
SCCF RECON,ioos:station:SCCF:53:1,2012-02-07T13:00:00Z,26.6493,-81.8810,2.22,4.96,1111122 
SCCF RECON,ioos:station:SCCF:53:1,2012-02-07T14:00:00Z,26.6493,-81.8810,2.17,4.99,1111122 
SCCF RECON,ioos:station:SCCF:53:1,2012-02-07T15:00:00Z,26.6493,-81.8810,2.12,5.05,1111122 
SCCF RECON,ioos:station:SCCF:53:1,2012-02-07T16:00:00Z,26.6493,-81.8810,2.111,5.42,1111122 
SCCF RECON,ioos:station:SCCF:53:1,2012-02-07T17:00:00Z,26.6493,-81.8810,2.16,5.46,1111122 
SCCF RECON,ioos:station:SCCF:53:1,2012-02-07T18:00:00Z,26.6493,-81.8810,2.2,6.35,1111122 
SCCF RECON,ioos:station:SCCF:53:1,2012-02-07T19:00:00Z,26.6493,-81.8810,2.246,6.75,1111122 
SCCF RECON,ioos:station:SCCF:53:1,2012-02-07T20:00:00Z,26.6493,-81.8810,2.3,6.26,1111122 
SCCF RECON,ioos:station:SCCF:53:1,2012-02-07T21:00:00Z,26.6493,-81.8810,2.337,5.4,1111122 
SCCF RECON,ioos:station:SCCF:53:1,2012-02-07T22:00:00Z,26.6493,-81.8810,2.318,5.48,1111122 
SCCF RECON,ioos:station:SCCF:53:1,2012-02-07T23:00:00Z,26.6493,-81.8810,2.281,5.8,1111122 
SCCF RECON,ioos:station:SCCF:53:1,2012-02-08T00:00:00Z,26.6493,-81.8810,2.236,5.29,1111122 
SCCF RECON,ioos:station:SCCF:53:1,2012-02-08T01:00:00Z,26.6493,-81.8810,2.195,5.33,1111122 
SCCF RECON,ioos:station:SCCF:53:1,2012-02-08T02:00:00Z,26.6493,-81.8810,2.17,5.36,1111122 
SCCF RECON,ioos:station:SCCF:53:1,2012-02-08T03:00:00Z,26.6493,-81.8810,2.157,5.48,1111122 
SCCF RECON,ioos:station:SCCF:53:1,2012-02-08T04:00:00Z,26.6493,-81.8810,2.22,5.5,1111122 
SCCF RECON,ioos:station:SCCF:53:1,2012-02-08T05:00:00Z,26.6493,-81.8810,2.28,5.69,1111122 
SCCF RECON,ioos:station:SCCF:53:1,2012-02-08T06:00:00Z,26.6493,-81.8810,2.34,5.7,1111122 
SCCF RECON,ioos:station:SCCF:53:1,2012-02-08T07:00:00Z,26.6493,-81.8810,2.4,5.69,1111122 
SCCF RECON,ioos:station:SCCF:53:1,2012-02-08T08:00:00Z,26.6493,-81.8810,2.44,5.98,1111122 
SCCF RECON,ioos:station:SCCF:53:1,2012-02-08T09:00:00Z,26.6493,-81.8810,2.435,5.36,1111122 
SCCF RECON,ioos:station:SCCF:53:1,2012-02-08T10:00:00Z,26.6493,-81.8810,2.38,5.47,1111122 
SCCF RECON,ioos:station:SCCF:53:1,2012-02-08T11:00:00Z,26.6493,-81.8810,2.321,4.97,1111122 
SCCF RECON,ioos:station:SCCF:53:1,2012-02-08T12:00:00Z,26.6493,-81.8810,2.279,5.04,1111122 
SCCF RECON,ioos:station:SCCF:53:1,2012-02-08T13:00:00Z,26.6493,-81.8810,2.22,4.98,1111122 
SCCF RECON,ioos:station:SCCF:53:1,2012-02-08T14:00:00Z,26.6493,-81.8810,2.17,4.89,1111122 
SCCF RECON,ioos:station:SCCF:53:1,2012-02-08T15:00:00Z,26.6493,-81.8810,2.133,5.5,1111122 
SCCF RECON,ioos:station:SCCF:53:1,2012-02-08T16:00:00Z,26.6493,-81.8810,2.1,5.26,1111122 
SCCF RECON,ioos:station:SCCF:53:1,2012-02-08T17:00:00Z,26.6493,-81.8810,2.12,5.51,1111122 
SCCF RECON,ioos:station:SCCF:53:1,2012-02-08T18:00:00Z,26.6493,-81.8810,2.17,5.63,1111122 
SCCF RECON,ioos:station:SCCF:53:1,2012-02-08T19:00:00Z,26.6493,-81.8810,2.2,6.0,1111122 
SCCF RECON,ioos:station:SCCF:53:1,2012-02-08T20:00:00Z,26.6493,-81.8810,2.25,6.44,1111122 
SCCF RECON,ioos:station:SCCF:53:1,2012-02-08T21:00:00Z,26.6493,-81.8810,2.29,6.41,1111122 
SCCF RECON,ioos:station:SCCF:53:1,2012-02-08T22:00:00Z,26.6493,-81.8810,2.3,6.12,1111122 
SCCF RECON,ioos:station:SCCF:53:1,2012-02-08T23:00:00Z,26.6493,-81.8810,2.269,6.09,1111122 
SCCF RECON,ioos:station:SCCF:53:1,2012-02-09T00:00:00Z,26.6493,-81.8810,2.22,6.18,1111122 
SCCF RECON,ioos:station:SCCF:53:1,2012-02-09T01:00:00Z,26.6493,-81.8810,2.187,5.65,1111122 
SCCF RECON,ioos:station:SCCF:53:1,2012-02-09T02:00:00Z,26.6493,-81.8810,2.15,5.16,1111122 
SCCF RECON,ioos:station:SCCF:53:1,2012-02-09T03:00:00Z,26.6493,-81.8810,2.12,5.3,1111122 
SCCF RECON,ioos:station:SCCF:53:1,2012-02-09T04:00:00Z,26.6493,-81.8810,2.13,5.26,1111122 
SCCF RECON,ioos:station:SCCF:53:1,2012-02-09T05:00:00Z,26.6493,-81.8810,2.197,5.46,1111122 
SCCF RECON,ioos:station:SCCF:53:1,2012-02-09T06:00:00Z,26.6493,-81.8810,2.25,5.97,1111122 
SCCF RECON,ioos:station:SCCF:53:1,2012-02-09T07:00:00Z,26.6493,-81.8810,2.312,6.35,1111122 
SCCF RECON,ioos:station:SCCF:53:1,2012-02-09T08:00:00Z,26.6493,-81.8810,2.37,6.36,1111122 
SCCF RECON,ioos:station:SCCF:53:1,2012-02-09T09:00:00Z,26.6493,-81.8810,2.4,5.95,1111122 
SCCF RECON,ioos:station:SCCF:53:1,2012-02-09T10:00:00Z,26.6493,-81.8810,2.378,5.7,1111122 
SCCF RECON,ioos:station:SCCF:53:1,2012-02-09T11:00:00Z,26.6493,-81.8810,2.32,6.87,1111122 
SCCF RECON,ioos:station:SCCF:53:1,2012-02-09T12:00:00Z,26.6493,-81.8810,2.278,6.02,1111122 
SCCF RECON,ioos:station:SCCF:53:1,2012-02-09T13:00:00Z,26.6493,-81.8810,2.23,5.61,1111122 
SCCF RECON,ioos:station:SCCF:53:1,2012-02-09T14:00:00Z,26.6493,-81.8810,2.175,6.11,1111122 
SCCF RECON,ioos:station:SCCF:53:1,2012-02-09T15:00:00Z,26.6493,-81.8810,2.13,6.21,1111122 
SCCF RECON,ioos:station:SCCF:53:1,2012-02-09T16:00:00Z,26.6493,-81.8810,2.08,6.38,1111122 
SCCF RECON,ioos:station:SCCF:53:1,2012-02-09T17:00:00Z,26.6493,-81.8810,2.06,6.57,1111122 
SCCF RECON,ioos:station:SCCF:53:1,2012-02-09T18:00:00Z,26.6493,-81.8810,2.095,6.98,1111122 
SCCF RECON,ioos:station:SCCF:53:1,2012-02-09T19:00:00Z,26.6493,-81.8810,2.13,7.08,1111122 
SCCF RECON,ioos:station:SCCF:53:1,2012-02-09T20:00:00Z,26.6493,-81.8810,2.172,7.29,1111122 
SCCF RECON,ioos:station:SCCF:53:1,2012-02-09T21:00:00Z,26.6493,-81.8810,2.24,7.46,1111122 
SCCF RECON,ioos:station:SCCF:53:1,2012-02-09T22:00:00Z,26.6493,-81.8810,2.28,7.36,1111122 
SCCF RECON,ioos:station:SCCF:53:1,2012-02-09T23:00:00Z,26.6493,-81.8810,2.274,7.25,1111122 
SCCF RECON,ioos:station:SCCF:53:1,2012-02-10T00:00:00Z,26.6493,-81.8810,2.236,7.37,1111122 
SCCF RECON,ioos:station:SCCF:53:1,2012-02-10T01:00:00Z,26.6493,-81.8810,2.2,7.28,1111122 
SCCF RECON,ioos:station:SCCF:53:1,2012-02-10T02:00:00Z,26.6493,-81.8810,2.16,7.01,1111122 
SCCF RECON,ioos:station:SCCF:53:1,2012-02-10T03:00:00Z,26.6493,-81.8810,2.127,6.8,1111122 
SCCF RECON,ioos:station:SCCF:53:1,2012-02-10T04:00:00Z,26.6493,-81.8810,2.1,6.88,1111122 
SCCF RECON,ioos:station:SCCF:53:1,2012-02-10T05:00:00Z,26.6493,-81.8810,2.14,6.65,1111122 
SCCF RECON,ioos:station:SCCF:53:1,2012-02-10T06:00:00Z,26.6493,-81.8810,2.19,6.87,1111122 
SCCF RECON,ioos:station:SCCF:53:1,2012-02-10T07:00:00Z,26.6493,-81.8810,2.24,6.75,1111122 
SCCF RECON,ioos:station:SCCF:53:1,2012-02-10T08:00:00Z,26.6493,-81.8810,2.298,6.82,1111122 
SCCF RECON,ioos:station:SCCF:53:1,2012-02-10T09:00:00Z,26.6493,-81.8810,2.35,6.66,1111122 
SCCF RECON,ioos:station:SCCF:53:1,2012-02-10T10:00:00Z,26.6493,-81.8810,2.38,6.58,1111122 
SCCF RECON,ioos:station:SCCF:53:1,2012-02-10T11:00:00Z,26.6493,-81.8810,2.37,6.36,1111122 
SCCF RECON,ioos:station:SCCF:53:1,2012-02-10T12:00:00Z,26.6493,-81.8810,2.32,6.55,1111122 
SCCF RECON,ioos:station:SCCF:53:1,2012-02-10T13:00:00Z,26.6493,-81.8810,2.274,6.57,1111122 
SCCF RECON,ioos:station:SCCF:53:1,2012-02-10T14:00:00Z,26.6493,-81.8810,2.23,6.34,1111122 
SCCF RECON,ioos:station:SCCF:53:1,2012-02-10T15:00:00Z,26.6493,-81.8810,2.18,6.37,1111122 
SCCF RECON,ioos:station:SCCF:53:1,2012-02-10T16:00:00Z,26.6493,-81.8810,2.129,6.06,1111122 
SCCF RECON,ioos:station:SCCF:53:1,2012-02-10T17:00:00Z,26.6493,-81.8810,2.11,6.46,1111122 
SCCF RECON,ioos:station:SCCF:53:1,2012-02-10T18:00:00Z,26.6493,-81.8810,2.17,6.39,1111122 
SCCF RECON,ioos:station:SCCF:53:1,2012-02-10T19:00:00Z,26.6493,-81.8810,2.226,6.62,1111122 
SCCF RECON,ioos:station:SCCF:53:1,2012-02-10T20:00:00Z,26.6493,-81.8810,2.272,6.74,1111122 
SCCF RECON,ioos:station:SCCF:53:1,2012-02-10T21:00:00Z,26.6493,-81.8810,2.351,6.82,1111122 
SCCF RECON,ioos:station:SCCF:53:1,2012-02-10T22:00:00Z,26.6493,-81.8810,2.404,6.86,1111122 
SCCF RECON,ioos:station:SCCF:53:1,2012-02-10T23:00:00Z,26.6493,-81.8810,2.41,6.83,1111122 
SCCF RECON,ioos:station:SCCF:53:1,2012-02-11T00:00:00Z,26.6493,-81.8810,2.378,6.72,1111122 
SCCF RECON,ioos:station:SCCF:53:1,2012-02-11T01:00:00Z,26.6493,-81.8810,2.33,6.93,1111122 
SCCF RECON,ioos:station:SCCF:53:1,2012-02-11T02:00:00Z,26.6493,-81.8810,2.29,6.74,1111122 
SCCF RECON,ioos:station:SCCF:53:1,2012-02-11T03:00:00Z,26.6493,-81.8810,2.243,6.68,1111122 
SCCF RECON,ioos:station:SCCF:53:1,2012-02-11T04:00:00Z,26.6493,-81.8810,2.194,6.48,1111122 
SCCF RECON,ioos:station:SCCF:53:1,2012-02-11T05:00:00Z,26.6493,-81.8810,2.17,6.64,1111122 
SCCF RECON,ioos:station:SCCF:53:1,2012-02-11T06:00:00Z,26.6493,-81.8810,2.2,6.52,1111122 
SCCF RECON,ioos:station:SCCF:53:1,2012-02-11T07:00:00Z,26.6493,-81.8810,2.25,6.72,1111122 
SCCF RECON,ioos:station:SCCF:53:1,2012-02-11T08:00:00Z,26.6493,-81.8810,2.29,6.8,1111122 
SCCF RECON,ioos:station:SCCF:53:1,2012-02-11T09:00:00Z,26.6493,-81.8810,2.35,6.81,1111122 
SCCF RECON,ioos:station:SCCF:53:1,2012-02-11T10:00:00Z,26.6493,-81.8810,2.39,6.68,1111122 
SCCF RECON,ioos:station:SCCF:53:1,2012-02-11T11:00:00Z,26.6493,-81.8810,2.41,6.62,1111122 
SCCF RECON,ioos:station:SCCF:53:1,2012-02-11T12:00:00Z,26.6493,-81.8810,2.4,6.39,1111122 
SCCF RECON,ioos:station:SCCF:53:1,2012-02-11T13:00:00Z,26.6493,-81.8810,2.351,6.6,1111122 
SCCF RECON,ioos:station:SCCF:53:1,2012-02-11T14:00:00Z,26.6493,-81.8810,2.311,6.43,1111122 
SCCF RECON,ioos:station:SCCF:53:1,2012-02-11T15:00:00Z,26.6493,-81.8810,2.264,6.47,1111122 
SCCF RECON,ioos:station:SCCF:53:1,2012-02-11T16:00:00Z,26.6493,-81.8810,2.217,6.36,1111122 
SCCF RECON,ioos:station:SCCF:53:1,2012-02-11T17:00:00Z,26.6493,-81.8810,2.164,6.56,1111122 
SCCF RECON,ioos:station:SCCF:53:1,2012-02-11T18:00:00Z,26.6493,-81.8810,2.136,6.64,1111122 
SCCF RECON,ioos:station:SCCF:53:1,2012-02-11T19:00:00Z,26.6493,-81.8810,2.17,6.65,1111122 
SCCF RECON,ioos:station:SCCF:53:1,2012-02-11T20:00:00Z,26.6493,-81.8810,2.21,6.89,1111122 
SCCF RECON,ioos:station:SCCF:53:1,2012-02-11T21:00:00Z,26.6493,-81.8810,2.249,6.89,1111122 